Location: *
(37.4917°N, 71.5558°E)
Time: 21:17:10
(UTC+00:00)

CZ-2C R/B - Pass Details

Date: 09 April 2020
Orbit: 785 x 870 km, 98.3° (Epoch: 31 May)

Event Time Altitude Azimuth Distance (km) Brightness Sun altitude
Rises 14:16:01 0° 33° (NNE) 3,284 5.6 -7.0°
Reaches altitude 10° 14:19:14 10° 54° (NE) 2,355 4.7 -7.6°
Maximum altitude 14:22:27 17° 92° (E) 1,942 4.0 -8.3°
Drops below altitude 10° 14:25:41 10° 131° (SE) 2,365 4.5 -8.9°
Enters shadow 14:27:23 - 144° (SE) 2,826 4.9 -9.2°
